Vertical_Velocity
0 0 -3 1 2 1 -1 -2 -1 -0 -3 -2 -1 0 -1 0 -1 -1 -1 -2 -3 -2
-1 -1 -1 -4 -1 -2 -1 -1 -1 -2 -0 1 -0 -0 -1 -2 -2 -2 -1 -2 -2 -2
0 -3 -1 -3 -3 0 -1 -5 -2 -2 -1 -2 -2 -1 -0 0 -2 -2 -2 -1 -1 -1
-0 2 2 0 -4 -4 -0 -0 1 -2 -1 -2 -1 -0 -1 0 -1 -1 -1 -0 0 -0
3 -1 -1 -1 -3 -0 -3 -1 -0 -1 -1 1 1 -0 -1 -1 -0 0 -1 -1 -1 -1
-1 1 -1 -2 -2 -0 -1 -2 -2 -1 -1 -2 0 1 1 0 1 -1 0 0 -1 -1
-0 -1 1 0 -1 0 1 -1 -3 -2 -1 -1 2 0 -3 -0 1 0 -1 1 1 -1
3 0 -0 0 1 -1 -0 -0 -2 -1 -0 -1 0 -0 1 -0 0 -1 -2 1 1 -0
-0 0 -0 1 0 -0 -1 -0 -1 -2 -2 -2 1 0 -1 -1 2 0 -2 -0 1 -1
-2 -1 -0 -0 -1 -2 -1 -1 -1 -1 -0 -2 -1 2 -0 -1 1 0 -1 -2 -1 -0
-3 0 -1 -1 1 1 -1 -1 0 -0 1 -2 -1 -0 1 0 1 -0 0 -0 -1 -0
-2 -3 -2 -2 -0 -0 -0 -1 -1 -0 0 -1 -4 0 -0 -2 -1 0 1 1 0 1
-3 -2 -1 -2 -1 1 -2 -1 -1 -2 1 1 -4 -1 -0 -0 -1 0 0 1 1 1
-2 -3 0 2 0 1 1 2 -0 1 -1 1 -1 -2 -2 -1 -2 -0 -0 -1 1 1
Height
1584 1584 1585 1587 1587 1587 1585 1584 1584 1582 1581 1580 1578 1577 1575 1573 1571 1570 1569 1568 1567 1566
1580 1579 1581 1583 1583 1583 1582 1581 1580 1580 1578 1577 1575 1574 1573 1571 1569 1568 1567 1565 1564 1563
1575 1575 1577 1578 1579 1579 1578 1577 1576 1576 1575 1573 1572 1571 1570 1568 1566 1565 1564 1563 1561 1560
1570 1572 1573 1573 1574 1574 1574 1574 1573 1572 1571 1570 1568 1568 1567 1566 1563 1562 1561 1559 1558 1556
1567 1567 1569 1570 1570 1570 1569 1569 1569 1569 1568 1567 1566 1564 1563 1562 1560 1559 1557 1556 1554 1553
1563 1564 1564 1564 1565 1565 1565 1565 1565 1564 1565 1564 1563 1562 1561 1558 1558 1557 1555 1553 1551 1549
1557 1559 1560 1560 1560 1561 1561 1560 1560 1560 1560 1560 1559 1558 1557 1557 1555 1554 1552 1550 1547 1545
1553 1554 1555 1555 1557 1557 1556 1556 1556 1555 1555 1555 1554 1554 1553 1552 1551 1549 1548 1546 1544 1542
1548 1549 1550 1551 1552 1552 1552 1552 1551 1551 1551 1551 1550 1549 1549 1548 1547 1545 1543 1542 1540 1538
1542 1544 1545 1546 1547 1547 1547 1547 1546 1545 1545 1545 1544 1544 1543 1543 1542 1540 1538 1537 1535 1533
1534 1537 1540 1540 1541 1541 1541 1541 1541 1540 1540 1540 1539 1539 1539 1538 1537 1536 1534 1532 1530 1528
1527 1529 1532 1533 1534 1535 1535 1535 1535 1535 1535 1534 1534 1534 1534 1533 1533 1531 1529 1528 1526 1524
1521 1522 1525 1527 1528 1529 1529 1529 1530 1530 1529 1529 1529 1528 1529 1528 1527 1526 1524 1523 1521 1519
1513 1515 1517 1520 1521 1522 1523 1524 1523 1523 1523 1523 1522 1522 1522 1522 1521 1521 1519 1517 1516 1514